This is the latest recevied weather packets stored in our database for station/object KY0TEQ-13. If no packets are shown the sender has not sent any weather packets the latest 10 day(s).
| Time | Temp. | Humidity | Pressure | Rain* | Wind** | Luminosity | Snow |
|---|---|---|---|---|---|---|---|
| 1787910349 | 16.67° C | 44% | 1312.8 hPa | 0 mm | - | 0 W/m² | - |
| 1787910045 | 16.11° C | 44% | 1312.7 hPa | 0 mm | - | 0 W/m² | - |
| 1787909741 | 16.11° C | 44% | 1312.7 hPa | 0 mm | - | 0 W/m² | - |
| 1787909436 | 16.11° C | 44% | 1312.8 hPa | 0 mm | - | 0 W/m² | - |
| 1787909131 | 16.11° C | 45% | 1312.7 hPa | 0 mm | - | 0 W/m² | - |
| 1787908826 | 16.11° C | 44% | 1312.7 hPa | 0 mm | - | 0 W/m² | - |
| 1787908521 | 16.11° C | 44% | 1312.4 hPa | 0 mm | - | 0 W/m² | - |
| 1787908220 | 15.56° C | 46% | 1312.8 hPa | 0 mm | - | 0 W/m² | - |
| 1787907919 | 15.56° C | 46% | 1312.9 hPa | 0 mm | - | 0 W/m² | - |
| 1787907616 | 15.56° C | 46% | 1312.9 hPa | 0 mm | - | 0 W/m² | - |
| 1787907314 | 16.11° C | 46% | 1312.9 hPa | 0 mm | - | 0 W/m² | - |
| 1787907013 | 15° C | 47% | 1312.7 hPa | 0 mm | - | 0 W/m² | - |
| 1787906708 | 15° C | 49% | 1312.8 hPa | 0 mm | - | 0 W/m² | - |
| 1787906403 | 15° C | 47% | 1313 hPa | 0 mm | - | 0 W/m² | - |
| 1787906102 | 15° C | 49% | 1312.9 hPa | 0 mm | - | 0 W/m² | - |
| 1787905798 | 15.56° C | 47% | 1312.9 hPa | 0 mm | - | 0 W/m² | - |
| 1787905493 | 15.56° C | 46% | 1312.8 hPa | 0 mm | - | 0 W/m² | - |
| 1787905189 | 15.56° C | 45% | 1312.8 hPa | 0 mm | - | 0 W/m² | - |
| 1787904883 | 16.11° C | 46% | 1313 hPa | 0 mm | - | 0 W/m² | - |
| 1787904580 | 16.67° C | 43% | 1313 hPa | 0 mm | - | 0 W/m² | - |
| 1787904279 | 16.11° C | 43% | 1312.8 hPa | 0 mm | - | 0 W/m² | - |
| 1787903974 | 16.11° C | 44% | 1312.8 hPa | 0 mm | - | 0 W/m² | - |
| 1787903671 | 15.56° C | 47% | 1312.9 hPa | 0 mm | - | 0 W/m² | - |
| 1787903366 | 16.67° C | 43% | 1312.9 hPa | 0 mm | - | 0 W/m² | - |
| 1787903062 | 16.67° C | 43% | 1312.9 hPa | 0 mm | - | 0 W/m² | - |
* Rain latest hour (hover to see other rain measurements)
** Current wind speed in m/s (hover to see current wind gust speed)